Volver al catálogo

STARLINK-5778

ActivoComunicacionesVLEO
NORAD 57149·PAYLOAD·🇺🇸 United States

Lanzado Jun 23, 2023 desde Cape Canaveral Space Force Station

Loading…

Próximos Pases (próximas 24 horas)

TLE

ActualizadoSource: CelesTrak SupGP

Época: Sep 14, 2026, 21:49 UTC

1 57149C 23090BA  26257.90951389  .00024765  00000+0  89718-3 0  2572
2 57149  43.0005 260.1822 0001694 259.1332 221.1474 15.27558606    13

Sigue STARLINK-5778 en tiempo real con AllMySat

Download on the App Store